Location: Burgberg
(50.1428°N, 11.0671°E)
Time: 10:40:03
(UTC+00:00)

ATLAS 3B R/B - Pass Details

Date: 26 January 2020
Orbit: 1027 x 1168 km, 63.8° (Epoch: 09 February)

Event Time Altitude Azimuth Distance (km) Brightness Sun altitude
Exits shadow 04:55:00 30° 299° (WNW) 1,820 3.4 -19.6°
Maximum altitude 04:58:16 53° 238° (WSW) 1,295 2.8 -19.1°
Drops below altitude 10° 05:04:59 10° 163° (SSE) 2,946 5.3 -18.0°
Sets 05:07:44 0° 159° (SSE) 3,921 6.1 -17.6°
